{"data":{"norad_id":52115,"intl_designator":"2022-029AD","name":"STARLINK-3685","alt_names":[],"object_type":"PAYLOAD","status":"ACTIVE","operator":null,"country":"US","launch_date":"2022-03-19","launch_site_code":"AFETR","launch_vehicle":null,"mission":null,"orbit_class":"UNKNOWN","rcs_meters":null,"size_class":null,"mass_kg":null,"dimensions":null,"purposes":["comms"],"wikipedia_slug":null,"has_3d_model":false,"image_url":null,"decayed_at":null,"tle_current":{"epoch":"2026-05-25T02:35:21.341760Z","epoch_age_seconds":62197,"freshness":"FRESH","line1":"1 52115U 22029AD  26145.10788590  .00000258  00000+0  34265-4 0  9993","line2":"2 52115  53.2132  96.0646 0000860  98.1017 262.0072 15.08844102232327","mean_motion":15.08844102,"eccentricity":8.6e-5,"inclination_deg":53.2132,"raan_deg":96.0646,"arg_perigee_deg":98.1017,"mean_anomaly_deg":262.0072,"bstar":3.4265e-5,"rev_number":23232,"period_min":95.437295217661,"perigee_km":539.13591418437,"apogee_km":540.32578745471,"semimajor_km":6917.8678508195,"source":"CELESTRAK","updated_at":"2026-05-25T13:38:17.074089Z"}}}